QPF
0.00 0.00 0.00 0.00 0.00 0.00 0.00 0.00 0.00 0.00 0.00 0.00 0.00 0.00 0.00 0.00 0.00 0.00 0.00 0.00 0.00 0.00 0.00 0.00 0.00 0.00 0.00 0.00 0.00 0.01 0.02 0.01 0.01 0.01 0.00 0.00 0.00 0.00 0.00 0.00 0.00 0.00 0.00 0.00 0.00 0.00 0.00 0.00 0.00
0.00 0.00 0.00 0.00 0.00 0.00 0.00 0.00 0.00 0.00 0.00 0.00 0.00 0.00 0.00 0.00 0.00 0.00 0.00 0.00 0.00 0.00 0.00 0.00 0.00 0.01 0.01 0.01 0.01 0.01 0.01 0.01 0.01 0.01 0.00 0.00 0.00 0.00 0.00 0.00 0.00 0.00 0.00 0.00 0.00 0.00 0.00 0.00 0.00
0.00 0.00 0.00 0.00 0.00 0.00 0.00 0.00 0.00 0.00 0.00 0.00 0.00 0.00 0.00 0.00 0.00 0.00 0.00 0.00 0.00 0.00 0.00 0.00 0.00 0.01 0.01 0.01 0.01 0.01 0.01 0.01 0.01 0.00 0.00 0.00 0.00 0.00 0.00 0.00 0.00 0.00 0.00 0.00 0.00 0.00 0.00 0.00 0.00
0.00 0.00 0.00 0.00 0.00 0.00 0.00 0.00 0.00 0.00 0.00 0.00 0.00 0.00 0.00 0.00 0.00 0.00 0.00 0.00 0.00 0.00 0.00 0.00 0.00 0.00 0.00 0.00 0.00 0.00 0.00 0.00 0.00 0.00 0.00 0.00 0.00 0.00 0.00 0.00 0.00 0.00 0.00 0.00 0.00 0.00 0.00 0.00 0.00
0.00 0.00 0.00 0.00 0.00 0.00 0.00 0.00 0.00 0.00 0.00 0.00 0.00 0.00 0.00 0.00 0.00 0.00 0.00 0.00 0.00 0.00 0.00 0.00 0.00 0.00 0.00 0.00 0.00 0.00 0.00 0.00 0.00 0.00 0.00 0.00 0.00 0.00 0.00 0.00 0.00 0.00 0.00 0.00 0.00 0.00 0.00 0.00 0.00
0.00 0.00 0.00 0.00 0.00 0.00 0.00 0.00 0.00 0.00 0.00 0.00 0.00 0.00 0.00 0.00 0.00 0.00 0.00 0.00 0.00 0.00 0.00 0.00 0.00 0.00 0.00 0.00 0.00 0.00 0.00 0.00 0.00 0.00 0.00 0.00 0.00 0.00 0.00 0.00 0.00 0.00 0.00 0.00 0.00 0.00 0.00 0.00 0.00
0.00 0.00 0.00 0.00 0.00 0.00 0.00 0.00 0.00 0.00 0.00 0.00 0.00 0.00 0.00 0.00 0.00 0.00 0.00 0.00 0.00 0.00 0.00 0.00 0.00 0.00 0.00 0.00 0.00 0.00 0.00 0.00 0.00 0.00 0.00 0.00 0.00 0.00 0.00 0.00 0.00 0.00 0.00 0.00 0.00 0.00 0.00 0.00 0.00
0.00 0.00 0.00 0.00 0.00 0.00 0.00 0.00 0.00 0.00 0.00 0.00 0.00 0.00 0.00 0.00 0.00 0.00 0.00 0.00 0.00 0.00 0.00 0.00 0.00 0.00 0.00 0.00 0.00 0.00 0.00 0.00 0.00 0.00 0.00 0.00 0.00 0.00 0.00 0.00 0.00 0.00 0.00 0.00 0.00 0.00 0.00 0.00 0.00
0.00 0.00 0.00 0.00 0.00 0.00 0.00 0.00 0.00 0.00 0.00 0.00 0.00 0.00 0.00 0.00 0.00 0.00 0.00 0.00 0.00 0.00 0.00 0.00 0.00 0.00 0.00 0.00 0.00 0.00 0.00 0.00 0.00 0.00 0.00 0.00 0.00 0.00 0.00 0.00 0.00 0.00 0.00 0.00 0.00 0.00 0.00 0.00 0.00
0.00 0.00 0.00 0.00 0.00 0.00 0.00 0.00 0.00 0.00 0.00 0.00 0.00 0.00 0.00 0.00 0.00 0.00 0.00 0.00 0.00 0.00 0.00 0.00 0.00 0.00 0.00 0.00 0.00 0.00 0.00 0.00 0.00 0.00 0.00 0.00 0.00 0.00 0.00 0.00 0.00 0.00 0.00 0.00 0.00 0.00 0.00 0.00 0.00
0.00 0.00 0.00 0.00 0.00 0.00 0.00 0.00 0.00 0.00 0.00 0.00 0.00 0.00 0.00 0.00 0.00 0.00 0.00 0.00 0.00 0.00 0.00 0.00 0.00 0.00 0.00 0.00 0.00 0.00 0.00 0.00 0.00 0.00 0.00 0.00 0.00 0.00 0.00 0.00 0.00 0.00 0.00 0.00 0.00 0.00 0.00 0.00 0.00
0.00 0.00 0.00 0.00 0.00 0.00 0.00 0.00 0.00 0.00 0.00 0.00 0.00 0.00 0.00 0.00 0.00 0.00 0.00 0.00 0.00 0.00 0.00 0.00 0.00 0.00 0.00 0.00 0.00 0.00 0.00 0.00 0.00 0.00 0.00 0.00 0.00 0.00 0.00 0.00 0.00 0.00 0.00 0.00 0.00 0.00 0.00 0.00 0.00
0.00 0.00 0.00 0.00 0.00 0.00 0.00 0.00 0.00 0.00 0.00 0.00 0.00 0.00 0.00 0.00 0.00 0.00 0.00 0.00 0.00 0.00 0.00 0.00 0.00 0.00 0.00 0.00 0.00 0.00 0.00 0.00 0.00 0.00 0.00 0.00 0.00 0.00 0.00 0.00 0.00 0.00 0.00 0.00 0.00 0.00 0.00 0.00 0.00
0.00 0.00 0.00 0.00 0.00 0.00 0.00 0.00 0.00 0.00 0.00 0.00 0.00 0.00 0.00 0.00 0.00 0.00 0.00 0.00 0.00 0.00 0.00 0.00 0.00 0.00 0.00 0.00 0.00 0.00 0.00 0.00 0.00 0.00 0.00 0.00 0.00 0.00 0.00 0.00 0.00 0.00 0.00 0.00 0.00 0.00 0.00 0.00 0.00
0.00 0.00 0.00 0.00 0.00 0.00 0.00 0.00 0.00 0.00 0.00 0.00 0.00 0.00 0.00 0.00 0.00 0.00 0.00 0.00 0.00 0.00 0.00 0.00 0.00 0.00 0.00 0.00 0.00 0.00 0.00 0.00 0.00 0.00 0.00 0.00 0.00 0.00 0.00 0.00 0.00 0.00 0.00 0.00 0.00 0.00 0.00 0.00 0.00
0.00 0.00 0.00 0.00 0.00 0.00 0.00 0.00 0.00 0.00 0.00 0.00 0.00 0.00 0.00 0.00 0.00 0.00 0.00 0.00 0.00 0.00 0.00 0.00 0.00 0.00 0.00 0.00 0.00 0.00 0.00 0.00 0.00 0.00 0.00 0.00 0.00 0.00 0.00 0.00 0.00 0.00 0.00 0.00 0.00 0.00 0.00 0.00 0.00
0.00 0.00 0.00 0.00 0.00 0.00 0.00 0.00 0.00 0.00 0.00 0.00 0.00 0.00 0.00 0.00 0.00 0.00 0.00 0.00 0.00 0.00 0.00 0.00 0.00 0.00 0.00 0.00 0.00 0.00 0.00 0.00 0.00 0.00 0.00 0.00 0.00 0.00 0.00 0.00 0.00 0.00 0.00 0.00 0.00 0.00 0.00 0.00 0.00
0.00 0.00 0.00 0.00 0.00 0.00 0.00 0.00 0.00 0.00 0.00 0.00 0.00 0.00 0.00 0.00 0.00 0.00 0.00 0.00 0.00 0.00 0.00 0.00 0.00 0.00 0.00 0.00 0.00 0.00 0.00 0.00 0.00 0.00 0.00 0.00 0.00 0.00 0.00 0.00 0.00 0.00 0.00 0.00 0.00 0.00 0.00 0.00 0.00
0.00 0.00 0.00 0.00 0.00 0.00 0.00 0.00 0.00 0.00 0.00 0.00 0.00 0.00 0.00 0.00 0.00 0.00 0.00 0.00 0.00 0.00 0.00 0.00 0.00 0.00 0.00 0.00 0.00 0.00 0.00 0.00 0.00 0.00 0.00 0.00 0.00 0.00 0.00 0.00 0.00 0.00 0.00 0.00 0.00 0.00 0.00 0.00 0.00
0.00 0.00 0.00 0.00 0.00 0.00 0.00 0.00 0.00 0.00 0.00 0.00 0.00 0.00 0.00 0.00 0.00 0.00 0.00 0.00 0.00 0.00 0.00 0.00 0.00 0.00 0.00 0.00 0.00 0.00 0.00 0.00 0.00 0.00 0.00 0.00 0.00 0.00 0.00 0.00 0.00 0.00 0.00 0.00 0.00 0.00 0.00 0.00 0.00
0.00 0.00 0.00 0.00 0.00 0.00 0.00 0.00 0.00 0.00 0.00 0.00 0.00 0.00 0.00 0.00 0.00 0.00 0.00 0.00 0.00 0.00 0.00 0.00 0.00 0.00 0.00 0.00 0.00 0.00 0.00 0.00 0.00 0.00 0.00 0.00 0.00 0.00 0.00 0.00 0.00 0.00 0.00 0.00 0.00 0.00 0.00 0.00 0.00
0.00 0.00 0.00 0.00 0.00 0.00 0.00 0.00 0.00 0.00 0.00 0.00 0.00 0.00 0.00 0.00 0.00 0.00 0.00 0.00 0.00 0.00 0.00 0.00 0.00 0.00 0.00 0.00 0.00 0.00 0.00 0.00 0.00 0.00 0.00 0.00 0.00 0.00 0.00 0.00 0.00 0.00 0.00 0.00 0.00 0.00 0.00 0.00 0.00
0.00 0.00 0.00 0.00 0.00 0.00 0.00 0.00 0.00 0.00 0.00 0.00 0.00 0.00 0.00 0.00 0.00 0.00 0.00 0.00 0.00 0.00 0.00 0.00 0.00 0.00 0.00 0.00 0.00 0.00 0.00 0.00 0.00 0.00 0.00 0.00 0.00 0.00 0.00 0.00 0.00 0.00 0.00 0.00 0.00 0.00 0.00 0.00 0.00
0.00 0.00 0.00 0.00 0.00 0.00 0.00 0.00 0.00 0.00 0.00 0.00 0.00 0.00 0.00 0.00 0.00 0.00 0.00 0.00 0.00 0.00 0.00 0.00 0.00 0.00 0.00 0.00 0.00 0.00 0.00 0.00 0.00 0.00 0.00 0.00 0.00 0.00 0.00 0.00 0.00 0.00 0.00 0.00 0.00 0.00 0.00 0.00 0.00
0.00 0.00 0.00 0.00 0.00 0.00 0.00 0.00 0.00 0.00 0.00 0.00 0.00 0.00 0.00 0.00 0.00 0.00 0.00 0.00 0.00 0.00 0.00 0.00 0.00 0.00 0.00 0.00 0.00 0.00 0.00 0.00 0.00 0.00 0.00 0.00 0.00 0.00 0.00 0.00 0.00 0.00 0.00 0.00 0.00 0.00 0.00 0.00 0.00
0.00 0.00 0.00 0.00 0.00 0.00 0.00 0.00 0.00 0.00 0.00 0.00 0.00 0.00 0.00 0.00 0.00 0.00 0.00 0.00 0.00 0.00 0.00 0.00 0.00 0.00 0.00 0.00 0.00 0.00 0.00 0.00 0.00 0.00 0.00 0.00 0.00 0.00 0.00 0.00 0.00 0.00 0.00 0.00 0.00 0.00 0.00 0.00 0.00
0.00 0.00 0.00 0.00 0.00 0.00 0.00 0.00 0.00 0.00 0.00 0.00 0.00 0.00 0.00 0.00 0.00 0.00 0.00 0.00 0.00 0.00 0.00 0.00 0.00 0.00 0.00 0.00 0.00 0.00 0.00 0.00 0.00 0.00 0.00 0.00 0.00 0.00 0.00 0.00 0.00 0.00 0.00 0.00 0.00 0.00 0.00 0.00 0.00
0.00 0.00 0.00 0.00 0.00 0.00 0.00 0.00 0.00 0.00 0.00 0.00 0.00 0.00 0.00 0.00 0.00 0.00 0.00 0.00 0.00 0.00 0.00 0.00 0.00 0.00 0.00 0.00 0.00 0.00 0.00 0.00 0.00 0.00 0.00 0.00 0.00 0.00 0.00 0.00 0.00 0.00 0.00 0.00 0.00 0.00 0.00 0.00 0.00
0.00 0.00 0.00 0.00 0.00 0.00 0.00 0.00 0.00 0.00 0.00 0.00 0.00 0.00 0.00 0.00 0.00 0.00 0.00 0.00 0.00 0.00 0.00 0.00 0.00 0.00 0.00 0.00 0.00 0.00 0.00 0.00 0.00 0.00 0.00 0.00 0.00 0.00 0.00 0.00 0.00 0.00 0.00 0.00 0.00 0.00 0.00 0.00 0.00
0.00 0.00 0.00 0.00 0.00 0.00 0.00 0.00 0.00 0.00 0.00 0.00 0.00 0.00 0.00 0.00 0.00 0.00 0.00 0.00 0.00 0.00 0.00 0.00 0.00 0.00 0.00 0.00 0.00 0.00 0.00 0.00 0.00 0.00 0.00 0.00 0.00 0.00 0.00 0.00 0.00 0.00 0.00 0.00 0.00 0.00 0.00 0.00 0.00
MSLP
1015.55 1015.56 1015.72 1016.23 1018.18 1018.97 1018.51 1017.24 1016.16 1015.48 1015.11 1014.73 1014.96 1015.38 1015.47 1015.46 1016.02 1016.51 1015.58 1015.52 1015.64 1015.73 1015.99 1016.08 1016.31 1016.59 1016.89 1017.11 1017.36 1017.71 1017.84 1018.07 1018.23 1018.55 1018.70 1018.87 1019.04 1019.46 1019.50 1019.68 1019.56 1019.51 1019.49 1019.69 1019.95 1020.13 1020.27 1020.30 1020.20
1015.70 1015.69 1016.28 1017.49 1018.78 1019.47 1018.30 1016.73 1015.95 1015.10 1014.65 1014.71 1014.88 1015.01 1015.20 1015.17 1015.13 1015.33 1015.53 1015.42 1015.53 1015.57 1015.87 1016.11 1016.24 1016.51 1016.83 1017.11 1017.29 1017.58 1017.72 1018.01 1018.23 1018.54 1018.91 1019.10 1019.34 1019.59 1019.69 1019.78 1019.79 1019.78 1019.87 1020.07 1020.26 1020.58 1020.65 1020.70 1020.60
1015.64 1015.94 1017.22 1018.34 1019.47 1019.20 1017.77 1016.10 1015.19 1014.67 1014.56 1014.68 1014.83 1014.80 1014.83 1014.64 1014.75 1014.89 1014.79 1015.09 1015.48 1015.66 1015.91 1016.07 1016.28 1016.52 1016.77 1016.95 1017.30 1017.54 1017.60 1017.93 1018.25 1018.73 1019.08 1019.28 1019.50 1019.80 1019.92 1019.98 1020.01 1020.01 1020.21 1020.43 1020.63 1020.77 1020.89 1020.68 1020.68
1016.11 1016.79 1018.39 1018.83 1019.13 1018.18 1016.94 1015.43 1015.18 1014.81 1014.64 1014.72 1014.72 1014.95 1014.63 1013.92 1014.22 1014.37 1014.61 1015.01 1015.59 1015.76 1015.89 1016.04 1016.29 1016.59 1016.90 1017.10 1017.34 1017.57 1017.68 1018.06 1018.28 1018.87 1019.07 1019.41 1019.68 1019.88 1019.96 1020.09 1020.21 1020.37 1020.50 1020.58 1020.80 1020.91 1020.79 1020.87 1021.03
1016.92 1017.98 1018.84 1019.10 1018.55 1017.35 1016.30 1015.29 1014.96 1014.89 1014.75 1014.78 1014.92 1014.81 1014.67 1014.05 1014.39 1014.62 1014.85 1015.21 1015.56 1015.92 1016.06 1016.22 1016.41 1016.59 1016.92 1017.30 1017.47 1017.71 1017.95 1018.26 1018.53 1019.00 1019.23 1019.61 1019.82 1020.01 1020.26 1020.35 1020.51 1020.71 1020.80 1021.00 1021.11 1021.09 1021.17 1021.34 1021.37
1017.91 1018.72 1019.41 1019.32 1018.20 1016.93 1015.76 1014.94 1014.85 1014.75 1014.68 1014.77 1014.95 1014.98 1014.59 1014.36 1014.82 1015.07 1015.16 1015.36 1015.57 1016.01 1016.22 1016.43 1016.49 1016.59 1016.95 1017.23 1017.49 1017.73 1018.11 1018.39 1018.78 1019.12 1019.48 1019.76 1020.00 1020.20 1020.43 1020.55 1020.68 1020.92 1020.96 1021.22 1021.34 1021.44 1021.52 1021.58 1021.66
1018.07 1019.14 1019.29 1018.86 1017.95 1016.76 1015.43 1014.99 1014.83 1014.61 1014.58 1014.55 1014.63 1015.03 1014.35 1014.51 1014.74 1015.32 1015.71 1015.97 1016.03 1016.08 1016.28 1016.44 1016.50 1016.70 1017.09 1017.30 1017.50 1017.88 1018.13 1018.50 1018.91 1019.26 1019.60 1019.82 1020.12 1020.23 1020.54 1020.65 1020.76 1021.02 1021.16 1021.40 1021.55 1021.50 1021.71 1021.90 1021.87
1017.97 1018.96 1019.17 1018.56 1017.76 1016.29 1015.01 1014.77 1014.32 1014.45 1014.18 1014.32 1014.55 1014.75 1014.50 1014.57 1015.17 1015.64 1015.88 1016.24 1016.44 1016.53 1016.50 1016.53 1016.63 1016.80 1017.17 1017.38 1017.57 1017.90 1018.19 1018.61 1018.99 1019.35 1019.61 1020.02 1020.18 1020.37 1020.62 1020.75 1020.90 1021.11 1021.31 1021.43 1021.51 1021.59 1021.81 1021.96 1021.93
1017.80 1018.77 1018.98 1018.03 1017.22 1015.59 1014.74 1014.60 1014.02 1013.90 1014.19 1014.34 1014.22 1014.17 1014.13 1014.94 1015.56 1016.01 1016.43 1016.61 1016.63 1016.55 1016.58 1016.65 1016.84 1016.90 1017.13 1017.45 1017.57 1017.88 1018.23 1018.66 1019.04 1019.38 1019.76 1020.14 1020.48 1020.71 1020.91 1020.94 1021.03 1021.21 1021.39 1021.53 1021.67 1021.97 1022.21 1022.30 1022.39
1017.71 1018.60 1017.84 1016.60 1015.97 1015.19 1014.64 1014.50 1014.09 1014.10 1014.05 1013.99 1013.87 1013.71 1014.32 1015.12 1015.62 1015.75 1015.98 1016.03 1016.26 1016.21 1016.20 1016.45 1016.66 1016.88 1017.15 1017.35 1017.61 1017.90 1018.25 1018.73 1019.17 1019.58 1020.01 1020.48 1020.75 1020.98 1021.11 1021.11 1021.27 1021.39 1021.55 1021.73 1021.96 1022.11 1022.52 1022.73 1022.86
1017.48 1017.46 1016.60 1015.74 1015.25 1015.01 1014.67 1014.26 1013.86 1014.03 1013.49 1013.27 1013.40 1013.23 1014.03 1014.89 1015.46 1015.63 1015.50 1015.35 1014.75 1015.16 1015.79 1015.98 1016.44 1016.76 1017.08 1017.32 1017.64 1018.01 1018.36 1018.88 1019.33 1019.68 1020.13 1020.64 1021.02 1021.15 1021.39 1021.64 1021.94 1022.18 1022.28 1022.50 1022.65 1022.90 1023.06 1023.10 1023.09
1017.25 1016.31 1016.00 1015.29 1014.93 1014.86 1014.66 1014.17 1013.94 1013.92 1011.88 1011.88 1012.12 1012.57 1013.22 1014.16 1014.69 1014.53 1014.61 1014.54 1014.72 1014.87 1015.02 1015.44 1015.96 1016.45 1016.84 1017.21 1017.56 1017.86 1018.26 1018.70 1019.19 1019.55 1020.02 1020.60 1021.19 1021.52 1021.78 1022.14 1022.48 1022.67 1022.89 1023.15 1023.27 1023.33 1023.34 1023.41 1023.45
1016.68 1015.99 1015.62 1015.00 1014.95 1014.77 1014.53 1013.79 1013.79 1013.13 1011.39 1011.45 1012.02 1012.39 1012.62 1013.16 1013.30 1013.27 1013.40 1013.61 1014.02 1014.37 1014.67 1014.90 1015.36 1015.68 1016.14 1016.81 1017.22 1017.65 1018.02 1018.41 1018.84 1019.38 1019.81 1020.22 1020.85 1021.31 1021.77 1022.11 1022.46 1022.67 1023.02 1023.24 1023.42 1023.44 1023.46 1023.61 1023.55
1015.66 1015.66 1015.47 1015.06 1014.75 1014.57 1014.42 1012.93 1013.44 1011.70 1010.74 1011.04 1011.50 1011.53 1011.66 1012.07 1011.85 1012.49 1012.81 1012.44 1012.78 1013.09 1013.44 1014.15 1014.63 1015.06 1015.63 1016.08 1016.53 1016.90 1017.42 1017.85 1018.49 1018.99 1019.30 1019.80 1020.29 1020.87 1021.44 1021.94 1022.35 1022.63 1022.85 1023.11 1023.34 1023.56 1023.66 1023.65 1023.56
1015.59 1015.91 1015.28 1014.60 1014.12 1014.34 1014.14 1013.73 1012.61 1010.21 1010.95 1010.81 1010.78 1010.86 1010.83 1010.78 1011.05 1010.76 1010.35 1010.79 1011.00 1011.42 1012.18 1012.76 1013.62 1014.37 1014.92 1015.44 1015.98 1016.38 1016.77 1017.40 1017.95 1018.37 1018.87 1019.36 1019.86 1020.48 1020.99 1021.55 1022.17 1022.48 1022.88 1023.22 1023.41 1023.69 1023.67 1023.62 1023.61
1016.04 1016.29 1015.73 1013.90 1013.97 1013.86 1014.03 1013.04 1010.03 1010.20 1010.68 1010.64 1010.40 1010.28 1010.15 1009.71 1009.63 1009.23 1008.98 1009.25 1009.86 1010.46 1010.69 1011.48 1012.11 1012.92 1013.80 1014.43 1015.09 1015.80 1016.37 1016.78 1017.20 1017.70 1018.23 1018.79 1019.27 1019.86 1020.55 1021.19 1021.83 1022.20 1022.82 1023.09 1023.27 1023.43 1023.72 1023.74 1023.81
1016.65 1016.36 1015.87 1014.66 1013.29 1013.82 1013.89 1012.26 1010.37 1010.02 1010.42 1010.34 1009.97 1009.64 1009.36 1008.83 1008.44 1007.95 1007.72 1007.95 1008.45 1008.77 1009.66 1010.26 1010.85 1011.43 1012.26 1013.33 1014.11 1014.84 1015.66 1016.32 1016.77 1017.31 1017.72 1018.14 1018.65 1019.26 1019.82 1020.55 1021.24 1021.86 1022.43 1022.90 1022.95 1023.42 1023.54 1023.80 1023.82
1016.24 1016.56 1015.80 1015.19 1013.54 1013.67 1013.41 1012.10 1011.05 1009.65 1010.13 1009.67 1009.02 1008.66 1008.18 1007.65 1006.23 1005.82 1006.73 1007.02 1007.55 1007.91 1008.34 1009.00 1009.83 1010.60 1011.59 1012.61 1013.52 1014.33 1014.94 1015.49 1016.19 1016.74 1017.12 1017.57 1018.08 1018.62 1019.29 1020.13 1020.90 1021.50 1022.26 1022.68 1022.73 1023.09 1023.47 1023.63 1023.72
1016.06 1016.10 1015.66 1014.40 1013.64 1013.70 1012.69 1011.60 1011.01 1009.94 1009.09 1008.17 1007.74 1007.31 1006.57 1005.93 1004.77 1005.04 1005.58 1006.09 1006.78 1007.36 1007.86 1008.33 1008.91 1009.19 1010.43 1011.66 1012.79 1013.71 1013.34 1014.08 1014.73 1015.21 1015.86 1016.73 1017.40 1018.12 1018.83 1019.57 1020.34 1021.07 1021.69 1021.96 1022.54 1022.86 1023.28 1023.62 1023.61
1016.22 1015.95 1015.24 1014.01 1013.42 1013.52 1012.46 1010.12 1010.07 1009.34 1008.06 1006.45 1005.95 1005.82 1005.22 1005.13 1005.01 1004.56 1005.01 1005.55 1006.17 1006.33 1006.77 1007.48 1007.95 1008.68 1008.98 1009.49 1010.28 1011.41 1012.31 1013.02 1013.25 1013.78 1014.37 1015.16 1016.29 1017.36 1018.27 1018.97 1019.69 1020.26 1020.92 1021.50 1021.81 1022.14 1023.15 1023.50 1023.61
1015.68 1016.15 1014.89 1014.54 1014.06 1013.48 1012.19 1008.93 1008.21 1007.16 1007.00 1005.99 1005.06 1004.81 1005.19 1005.31 1004.96 1004.32 1004.91 1005.87 1006.27 1006.23 1006.27 1006.51 1006.75 1007.26 1007.81 1008.53 1009.58 1010.70 1011.68 1012.84 1013.50 1013.94 1014.53 1014.85 1015.20 1015.67 1016.45 1017.76 1018.83 1019.58 1020.22 1020.83 1021.32 1021.76 1022.14 1022.96 1023.51
1014.87 1014.46 1014.43 1014.81 1015.28 1014.66 1013.31 1009.59 1008.06 1007.26 1006.36 1005.81 1004.58 1004.56 1004.56 1004.53 1004.71 1005.07 1004.97 1005.07 1005.44 1005.26 1005.29 1005.56 1006.22 1006.76 1007.52 1008.27 1008.74 1009.11 1009.40 1010.36 1010.23 1011.11 1012.43 1013.56 1014.36 1015.08 1015.87 1016.60 1017.27 1018.21 1019.29 1019.99 1020.49 1020.95 1021.41 1021.85 1022.81
1013.87 1014.10 1014.60 1014.83 1015.24 1014.96 1013.80 1012.90 1006.66 1005.84 1005.89 1005.07 1004.66 1004.14 1004.31 1004.89 1005.19 1005.04 1004.89 1004.64 1004.23 1004.03 1004.45 1004.73 1005.07 1005.47 1006.34 1006.93 1007.38 1008.61 1009.13 1008.72 1008.85 1010.56 1012.05 1013.14 1013.94 1014.78 1015.63 1016.29 1017.34 1017.89 1018.30 1018.91 1019.51 1020.29 1020.97 1021.30 1021.54
1013.40 1014.26 1015.13 1015.81 1015.75 1014.22 1012.59 1011.73 1007.38 1005.56 1005.13 1005.04 1004.57 1004.31 1004.81 1004.79 1005.02 1004.96 1004.67 1004.55 1004.35 1004.46 1004.76 1004.68 1005.04 1005.58 1006.01 1006.67 1007.31 1007.25 1007.90 1008.91 1009.67 1010.10 1011.32 1012.53 1013.49 1014.14 1014.89 1015.62 1016.30 1016.94 1017.87 1018.23 1018.89 1019.69 1020.15 1020.55 1021.04
1014.11 1014.47 1016.00 1016.04 1016.14 1013.05 1011.08 1010.36 1006.91 1004.82 1004.36 1004.23 1004.40 1004.35 1004.90 1005.60 1005.79 1005.60 1004.98 1004.72 1004.48 1004.47 1004.56 1005.05 1005.32 1005.45 1006.08 1006.97 1007.62 1007.66 1007.63 1008.23 1008.94 1009.70 1010.48 1011.25 1012.39 1013.17 1013.40 1014.28 1015.19 1015.91 1016.47 1017.49 1017.96 1018.44 1019.13 1020.16 1020.46
1013.88 1014.41 1015.15 1014.77 1014.42 1012.42 1011.36 1007.87 1005.11 1004.06 1003.61 1003.82 1004.44 1004.63 1005.23 1005.62 1005.79 1005.52 1005.29 1005.35 1004.88 1004.90 1004.80 1005.35 1005.63 1005.67 1005.78 1006.29 1007.38 1008.05 1008.42 1008.68 1008.99 1009.56 1009.67 1010.37 1010.71 1011.32 1012.77 1013.53 1014.33 1015.07 1016.07 1016.73 1017.64 1018.43 1018.63 1019.03 1020.05
1013.59 1013.89 1013.40 1013.56 1013.29 1013.25 1009.70 1005.91 1004.63 1003.74 1003.95 1004.32 1004.65 1005.14 1006.08 1005.89 1005.43 1005.51 1005.52 1005.53 1005.45 1005.19 1004.99 1005.57 1006.07 1006.35 1006.35 1006.15 1006.02 1006.22 1007.03 1007.68 1007.86 1008.60 1009.14 1009.69 1010.19 1010.64 1011.70 1012.61 1013.38 1013.89 1014.92 1015.98 1016.99 1017.59 1018.24 1018.70 1019.41
1012.62 1013.07 1013.46 1013.82 1013.52 1012.29 1009.25 1007.59 1004.38 1004.84 1005.19 1005.34 1005.65 1006.50 1006.80 1006.13 1005.93 1005.30 1005.73 1006.02 1005.76 1005.84 1005.35 1005.70 1005.71 1005.51 1005.66 1006.16 1006.22 1006.34 1006.02 1006.23 1007.09 1007.54 1008.30 1008.97 1009.35 1009.98 1010.90 1011.80 1012.53 1013.43 1013.99 1014.64 1015.48 1016.60 1017.30 1018.14 1018.65
1012.74 1012.81 1013.34 1013.44 1012.50 1011.02 1009.52 1006.51 1004.50 1004.87 1005.53 1006.33 1007.17 1007.24 1007.15 1007.22 1007.57 1007.24 1007.46 1007.17 1007.44 1007.03 1006.54 1007.11 1007.25 1007.25 1007.27 1007.29 1006.85 1006.46 1006.57 1007.13 1007.01 1007.17 1007.52 1007.80 1008.24 1008.91 1009.79 1010.60 1011.69 1012.33 1013.13 1014.03 1014.51 1015.10 1015.86 1016.81 1017.85
1011.56 1011.77 1012.31 1012.47 1011.19 1010.09 1008.55 1006.05 1003.73 1005.29 1006.04 1007.45 1008.64 1009.43 1009.31 1009.83 1009.86 1009.71 1009.15 1008.99 1008.55 1008.87 1008.31 1007.62 1007.28 1007.37 1007.16 1006.93 1006.52 1006.34 1006.45 1006.70 1006.96 1006.68 1006.76 1007.42 1007.62 1008.01 1008.47 1009.40 1010.32 1011.48 1012.03 1012.92 1013.34 1014.02 1014.06 1014.86 1016.27
Thickness
5737 5737 5735 5725 5692 5678 5676 5690 5707 5712 5716 5723 5716 5711 5708 5715 5704 5691 5723 5725 5724 5724 5721 5719 5717 5715 5713 5712 5710 5707 5706 5703 5702 5700 5699 5699 5698 5695 5696 5695 5698 5699 5700 5699 5698 5698 5698 5699 5701
5737 5735 5727 5705 5678 5666 5673 5698 5704 5712 5723 5720 5718 5717 5715 5712 5720 5721 5721 5724 5723 5723 5720 5718 5716 5714 5712 5710 5710 5708 5707 5704 5702 5701 5698 5697 5696 5694 5694 5694 5695 5696 5696 5695 5695 5694 5694 5694 5696
5737 5734 5714 5690 5667 5669 5682 5708 5715 5723 5722 5721 5718 5720 5720 5721 5723 5724 5728 5726 5722 5720 5718 5716 5714 5712 5711 5710 5708 5706 5707 5704 5702 5698 5696 5694 5693 5692 5692 5693 5693 5694 5692 5692 5691 5691 5691 5695 5695
5730 5723 5705 5689 5683 5693 5702 5719 5719 5721 5723 5719 5720 5714 5723 5733 5729 5730 5728 5725 5720 5718 5716 5714 5712 5711 5708 5707 5705 5704 5703 5701 5701 5696 5695 5693 5691 5690 5691 5690 5689 5689 5689 5690 5688 5689 5692 5691 5690
5722 5707 5690 5687 5688 5702 5709 5717 5720 5719 5721 5719 5718 5716 5719 5732 5729 5728 5726 5723 5720 5716 5714 5712 5710 5708 5706 5703 5702 5700 5698 5696 5695 5692 5692 5689 5688 5688 5686 5686 5685 5684 5685 5683 5683 5685 5685 5685 5685
5707 5698 5682 5677 5691 5706 5714 5724 5720 5718 5719 5720 5717 5716 5721 5729 5726 5724 5723 5721 5718 5715 5712 5709 5708 5706 5704 5701 5699 5697 5694 5692 5690 5689 5687 5686 5685 5684 5682 5683 5683 5681 5681 5678 5678 5679 5679 5679 5679
5703 5689 5684 5686 5690 5700 5719 5717 5719 5720 5720 5718 5723 5717 5729 5729 5727 5721 5718 5716 5714 5712 5710 5708 5706 5703 5700 5698 5697 5694 5692 5689 5686 5684 5683 5682 5681 5681 5679 5679 5679 5676 5676 5675 5675 5677 5675 5674 5675
5699 5691 5688 5683 5686 5697 5722 5718 5725 5720 5722 5724 5724 5715 5722 5731 5722 5717 5716 5712 5710 5708 5707 5707 5705 5702 5698 5696 5694 5691 5689 5686 5683 5681 5680 5677 5677 5676 5675 5675 5674 5673 5672 5672 5673 5674 5672 5672 5673
5703 5680 5670 5686 5689 5706 5719 5716 5724 5727 5721 5720 5721 5725 5730 5719 5715 5712 5709 5706 5706 5706 5706 5704 5702 5701 5698 5694 5692 5689 5686 5682 5680 5678 5676 5674 5674 5672 5671 5671 5669 5668 5667 5667 5667 5666 5665 5666 5666
5691 5671 5683 5696 5699 5707 5715 5713 5717 5718 5716 5715 5718 5726 5722 5714 5711 5711 5708 5709 5705 5706 5706 5703 5701 5699 5697 5694 5691 5688 5684 5680 5677 5674 5672 5670 5668 5666 5666 5665 5662 5662 5661 5660 5659 5660 5658 5660 5660
5689 5685 5693 5703 5701 5705 5707 5708 5713 5708 5708 5711 5718 5727 5719 5711 5706 5707 5709 5711 5716 5712 5705 5702 5699 5696 5693 5691 5688 5685 5682 5677 5673 5670 5667 5664 5661 5661 5659 5657 5656 5654 5653 5653 5652 5651 5651 5651 5652
5686 5695 5697 5706 5704 5703 5700 5704 5705 5700 5728 5729 5725 5726 5720 5711 5708 5711 5711 5711 5709 5706 5705 5702 5697 5694 5691 5687 5684 5682 5679 5675 5671 5668 5664 5660 5656 5653 5651 5649 5647 5646 5645 5643 5642 5642 5642 5642 5641
5682 5692 5697 5699 5697 5693 5693 5699 5695 5704 5725 5722 5719 5718 5717 5713 5712 5715 5715 5712 5707 5704 5701 5699 5696 5694 5690 5685 5682 5679 5675 5672 5669 5665 5661 5658 5653 5649 5645 5643 5641 5640 5637 5635 5634 5634 5634 5633 5633
5690 5690 5690 5695 5696 5691 5688 5707 5697 5716 5719 5720 5715 5717 5716 5715 5719 5712 5707 5714 5710 5709 5704 5697 5694 5690 5686 5685 5681 5677 5674 5671 5666 5662 5658 5654 5651 5646 5642 5638 5635 5633 5630 5628 5626 5624 5624 5624 5625
5684 5676 5681 5691 5693 5681 5679 5680 5689 5725 5713 5714 5715 5714 5717 5718 5717 5721 5725 5721 5719 5715 5705 5700 5692 5687 5684 5681 5676 5673 5670 5666 5663 5659 5655 5651 5646 5642 5638 5633 5628 5626 5622 5619 5618 5616 5616 5616 5615
5670 5663 5662 5699 5685 5686 5678 5664 5729 5714 5703 5707 5708 5711 5712 5719 5721 5726 5730 5728 5720 5713 5709 5701 5698 5692 5685 5680 5673 5669 5665 5663 5661 5657 5653 5648 5644 5639 5634 5629 5624 5621 5616 5614 5612 5610 5607 5607 5606
5650 5638 5644 5663 5690 5675 5664 5664 5710 5713 5699 5698 5704 5707 5714 5720 5723 5726 5729 5728 5724 5720 5711 5705 5701 5697 5690 5682 5674 5668 5662 5658 5655 5651 5648 5645 5640 5635 5631 5626 5621 5616 5612 5608 5606 5602 5602 5599 5597
5635 5626 5636 5644 5684 5667 5653 5657 5678 5707 5692 5699 5710 5714 5714 5721 5738 5744 5729 5723 5720 5718 5714 5709 5702 5696 5686 5678 5671 5664 5660 5657 5651 5646 5643 5639 5635 5631 5627 5621 5615 5611 5605 5601 5600 5597 5594 5591 5589
5644 5633 5630 5653 5670 5653 5658 5661 5672 5691 5700 5708 5713 5716 5718 5724 5740 5739 5731 5721 5714 5711 5708 5705 5699 5699 5688 5677 5667 5661 5667 5660 5655 5650 5643 5636 5631 5626 5621 5616 5611 5606 5600 5597 5593 5589 5586 5582 5580
5629 5627 5631 5650 5659 5641 5647 5663 5670 5683 5696 5718 5720 5720 5725 5728 5727 5731 5724 5720 5711 5711 5710 5704 5701 5693 5690 5687 5681 5671 5665 5660 5658 5653 5649 5641 5632 5623 5615 5610 5606 5602 5596 5592 5588 5585 5576 5573 5571
5625 5614 5632 5628 5635 5635 5636 5661 5664 5689 5692 5706 5717 5719 5714 5712 5717 5726 5718 5706 5699 5700 5699 5701 5700 5696 5690 5683 5675 5665 5658 5650 5644 5642 5636 5632 5629 5627 5622 5611 5602 5596 5590 5585 5581 5577 5575 5568 5563
5624 5629 5629 5622 5613 5607 5628 5637 5658 5687 5696 5689 5708 5714 5707 5708 5708 5705 5710 5710 5699 5700 5699 5698 5691 5685 5679 5673 5672 5671 5671 5664 5664 5655 5643 5633 5625 5620 5614 5609 5605 5597 5588 5581 5576 5573 5569 5566 5559
5623 5628 5619 5617 5603 5595 5602 5596 5670 5672 5670 5681 5692 5699 5702 5699 5696 5700 5703 5704 5706 5703 5695 5693 5689 5688 5678 5672 5669 5660 5658 5666 5662 5645 5630 5621 5616 5609 5602 5598 5589 5586 5583 5578 5573 5566 5561 5559 5557
5623 5614 5600 5576 5585 5586 5608 5612 5638 5653 5664 5671 5679 5681 5677 5679 5680 5683 5687 5689 5694 5689 5683 5681 5678 5674 5669 5662 5655 5657 5654 5643 5635 5633 5622 5612 5605 5601 5595 5590 5585 5580 5573 5570 5564 5557 5555 5552 5547
5603 5593 5567 5565 5549 5599 5618 5599 5642 5662 5666 5669 5670 5668 5660 5652 5652 5652 5664 5670 5672 5676 5673 5666 5663 5661 5654 5647 5641 5639 5641 5633 5629 5621 5616 5609 5600 5595 5596 5587 5578 5574 5570 5561 5559 5555 5547 5538 5538
5580 5579 5562 5555 5556 5605 5598 5595 5639 5661 5668 5659 5653 5650 5645 5639 5634 5641 5644 5643 5650 5654 5656 5650 5648 5645 5640 5634 5623 5616 5611 5610 5609 5605 5607 5602 5599 5595 5582 5577 5573 5567 5558 5554 5547 5541 5539 5537 5528
5574 5564 5579 5560 5513 5520 5602 5636 5642 5649 5650 5642 5641 5636 5621 5622 5627 5628 5624 5620 5619 5623 5623 5623 5622 5620 5620 5622 5622 5621 5612 5605 5604 5596 5592 5588 5584 5583 5574 5569 5565 5563 5554 5545 5535 5532 5526 5522 5518
5563 5563 5551 5535 5531 5517 5580 5582 5624 5631 5628 5623 5612 5602 5600 5609 5613 5616 5608 5598 5596 5599 5602 5598 5600 5604 5604 5601 5603 5604 5607 5604 5595 5589 5582 5576 5573 5570 5564 5558 5555 5550 5547 5542 5534 5524 5518 5512 5507
5543 5539 5538 5534 5533 5533 5535 5572 5636 5612 5605 5599 5589 5583 5584 5589 5585 5581 5579 5578 5573 5577 5576 5570 5569 5571 5572 5573 5580 5584 5582 5576 5577 5576 5574 5574 5569 5565 5558 5551 5543 5540 5535 5529 5525 5520 5513 5506 5497
5538 5537 5536 5524 5529 5528 5539 5550 5631 5606 5596 5572 5548 5534 5533 5531 5531 5536 5542 5548 5549 5543 5548 5553 5555 5553 5555 5560 5564 5567 5568 5562 5560 5563 5562 5557 5557 5553 5549 5540 5533 5526 5521 5517 5515 5509 5509 5505 5493